Time,TemperatureF,DewpointF,PressureIn,WindDirection,WindDirectionDegrees,WindSpeedMPH,WindSpeedGustMPH,Humidity,HourlyPrecipIn,Conditions,Clouds,dailyrainin,SoftwareType,DateUTC
2013-08-27 00:04:00,77.4,41.7,30.00,North,0,0.0,0.0,28,0.00,CLR,OVC,0.00,WeatherDisplay:10.37,2013-08-27 05:04:00,
2013-08-27 00:09:00,77.4,41.7,30.00,North,0,0.0,0.0,28,0.00,CLR,OVC,0.00,WeatherDisplay:10.37,2013-08-27 05:09:00,
2013-08-27 00:14:00,77.4,40.8,30.00,North,0,0.0,0.0,27,0.00,CLR,OVC,0.00,WeatherDisplay:10.37,2013-08-27 05:14:00,
2013-08-27 00:19:00,77.5,40.9,30.00,North,0,0.0,0.0,27,0.00,CLR,OVC,0.00,WeatherDisplay:10.37,2013-08-27 05:19:00,
2013-08-27 00:24:00,77.5,40.9,30.00,North,0,0.0,0.0,27,0.00,CLR,OVC,0.00,WeatherDisplay:10.37,2013-08-27 05:24:00,
2013-08-27 00:29:00,77.5,39.9,30.00,North,0,0.0,0.0,26,0.00,CLR,OVC,0.00,WeatherDisplay:10.37,2013-08-27 05:29:00,
2013-08-27 00:34:00,77.4,39.8,30.00,North,0,0.0,0.0,26,0.00,CLR,OVC,0.00,WeatherDisplay:10.37,2013-08-27 05:34:00,
2013-08-27 00:39:00,77.4,39.8,30.00,North,0,0.0,0.0,26,0.00,CLR,OVC,0.00,WeatherDisplay:10.37,2013-08-27 05:39:00,
2013-08-27 00:44:00,77.4,39.8,30.00,North,0,0.0,0.0,26,0.00,CLR,OVC,0.00,WeatherDisplay:10.37,2013-08-27 05:44:00,
2013-08-27 00:49:00,77.4,39.8,30.00,North,0,0.0,0.0,26,0.00,CLR,OVC,0.00,WeatherDisplay:10.37,2013-08-27 05:49:00,
2013-08-27 00:54:00,77.2,39.6,30.00,North,0,0.0,0.0,26,0.00,CLR,OVC,0.00,WeatherDisplay:10.37,2013-08-27 05:54:00,
2013-08-27 00:59:00,77.2,39.6,30.00,North,0,0.0,0.0,26,0.00,CLR,OVC,0.00,WeatherDisplay:10.37,2013-08-27 05:59:00,
2013-08-27 01:04:00,77.0,39.5,30.00,North,0,0.0,0.0,26,0.00,CLR,OVC,0.00,WeatherDisplay:10.37,2013-08-27 06:04:00,
2013-08-27 01:09:00,77.0,39.5,30.00,North,0,0.0,0.0,26,0.00,CLR,OVC,0.00,WeatherDisplay:10.37,2013-08-27 06:09:00,
2013-08-27 01:14:00,77.0,39.5,29.97,North,0,0.0,0.0,26,0.00,CLR,OVC,0.00,WeatherDisplay:10.37,2013-08-27 06:14:00,
2013-08-27 01:19:00,77.0,39.5,29.97,North,0,0.0,0.0,26,0.00,CLR,OVC,0.00,WeatherDisplay:10.37,2013-08-27 06:19:00,
2013-08-27 01:24:00,77.0,39.5,29.97,North,0,0.0,0.0,26,0.00,CLR,OVC,0.00,WeatherDisplay:10.37,2013-08-27 06:24:00,
2013-08-27 01:29:00,77.2,39.6,29.97,North,0,0.0,0.0,26,0.00,CLR,OVC,0.00,WeatherDisplay:10.37,2013-08-27 06:29:00,
2013-08-27 01:34:00,77.0,39.5,29.97,North,0,0.0,0.0,26,0.00,CLR,OVC,0.00,WeatherDisplay:10.37,2013-08-27 06:34:00,
2013-08-27 01:39:00,77.0,39.5,29.97,North,0,0.0,0.0,26,0.00,CLR,OVC,0.00,WeatherDisplay:10.37,2013-08-27 06:39:00,
2013-08-27 01:44:00,76.8,40.3,29.97,North,0,0.0,0.0,27,0.00,CLR,OVC,0.00,WeatherDisplay:10.37,2013-08-27 06:44:00,
2013-08-27 01:49:00,76.6,40.1,29.97,North,0,0.0,0.0,27,0.00,CLR,OVC,0.00,WeatherDisplay:10.37,2013-08-27 06:49:00,
2013-08-27 01:54:00,76.5,40.0,29.97,North,0,0.0,0.0,27,0.00,CLR,OVC,0.00,WeatherDisplay:10.37,2013-08-27 06:54:00,
2013-08-27 01:59:00,76.3,40.8,29.97,North,0,0.0,0.0,28,0.00,CLR,OVC,0.00,WeatherDisplay:10.37,2013-08-27 06:59:00,
2013-08-27 02:04:00,76.1,40.6,29.97,North,0,0.0,0.0,28,0.00,CLR,OVC,0.00,WeatherDisplay:10.37,2013-08-27 07:04:00,
2013-08-27 02:09:00,76.1,41.5,29.97,North,0,0.0,0.0,29,0.00,CLR,OVC,0.00,WeatherDisplay:10.37,2013-08-27 07:09:00,
2013-08-27 02:14:00,75.9,41.4,29.97,North,0,0.0,0.0,29,0.00,CLR,OVC,0.00,WeatherDisplay:10.37,2013-08-27 07:14:00,
2013-08-27 02:19:00,75.7,41.2,29.97,North,0,0.0,0.0,29,0.00,CLR,OVC,0.00,WeatherDisplay:10.37,2013-08-27 07:19:00,
2013-08-27 02:24:00,75.7,42.1,29.97,North,0,0.0,0.0,30,0.00,CLR,OVC,0.00,WeatherDisplay:10.37,2013-08-27 07:24:00,
2013-08-27 02:29:00,75.6,41.9,29.94,North,0,0.0,0.0,30,0.00,CLR,OVC,0.00,WeatherDisplay:10.37,2013-08-27 07:29:00,
2013-08-27 02:34:00,75.6,41.9,29.94,North,0,0.0,0.0,30,0.00,CLR,OVC,0.00,WeatherDisplay:10.37,2013-08-27 07:34:00,
2013-08-27 02:39:00,75.4,42.6,29.94,North,0,0.0,0.0,31,0.00,CLR,OVC,0.00,WeatherDisplay:10.37,2013-08-27 07:39:00,
2013-08-27 02:44:00,75.2,42.5,29.97,North,0,0.0,0.0,31,0.00,CLR,OVC,0.00,WeatherDisplay:10.37,2013-08-27 07:44:00,
2013-08-27 02:49:00,75.2,42.5,29.97,North,0,0.0,0.0,31,0.00,CLR,OVC,0.00,WeatherDisplay:10.37,2013-08-27 07:49:00,
2013-08-27 02:54:00,75.0,42.3,29.97,North,0,0.0,0.0,31,0.00,CLR,OVC,0.00,WeatherDisplay:10.37,2013-08-27 07:54:00,
2013-08-27 02:59:00,75.0,42.3,29.97,North,0,0.0,0.0,31,0.00,CLR,OVC,0.00,WeatherDisplay:10.37,2013-08-27 07:59:00,
2013-08-27 03:04:00,74.8,42.2,29.97,North,0,0.0,0.0,31,0.00,CLR,OVC,0.00,WeatherDisplay:10.37,2013-08-27 08:04:00,
2013-08-27 03:09:00,74.8,43.0,29.97,North,0,0.0,0.0,32,0.00,CLR,OVC,0.00,WeatherDisplay:10.37,2013-08-27 08:09:00,
2013-08-27 03:14:00,74.8,43.0,29.97,North,0,0.0,0.0,32,0.00,CLR,OVC,0.00,WeatherDisplay:10.37,2013-08-27 08:14:00,
2013-08-27 03:19:00,74.8,43.0,29.97,North,0,0.0,0.0,32,0.00,CLR,OVC,0.00,WeatherDisplay:10.37,2013-08-27 08:19:00,
2013-08-27 03:24:00,74.8,43.0,29.97,North,0,0.0,0.0,32,0.00,CLR,OVC,0.00,WeatherDisplay:10.37,2013-08-27 08:24:00,
2013-08-27 03:29:00,74.8,43.0,29.94,North,0,0.0,0.0,32,0.00,CLR,OVC,0.00,WeatherDisplay:10.37,2013-08-27 08:29:00,
2013-08-27 03:34:00,74.8,43.0,29.94,North,0,0.0,0.0,32,0.00,CLR,OVC,0.00,WeatherDisplay:10.37,2013-08-27 08:34:00,
2013-08-27 03:39:00,74.8,43.0,29.94,North,0,0.0,0.0,32,0.00,CLR,OVC,0.00,WeatherDisplay:10.37,2013-08-27 08:39:00,
2013-08-27 03:44:00,74.8,43.0,29.94,North,0,0.0,0.0,32,0.00,CLR,OVC,0.00,WeatherDisplay:10.37,2013-08-27 08:44:00,
2013-08-27 03:49:00,74.8,43.0,29.94,North,0,0.0,0.0,32,0.00,CLR,OVC,0.00,WeatherDisplay:10.37,2013-08-27 08:49:00,
2013-08-27 03:54:00,74.8,43.0,29.94,North,0,0.0,0.0,32,0.00,CLR,OVC,0.00,WeatherDisplay:10.37,2013-08-27 08:54:00,
2013-08-27 03:59:00,74.8,43.0,29.94,North,0,0.0,0.0,32,0.00,CLR,OVC,0.00,WeatherDisplay:10.37,2013-08-27 08:59:00,
2013-08-27 04:04:00,74.8,43.0,29.94,North,0,0.0,0.0,32,0.00,CLR,OVC,0.00,WeatherDisplay:10.37,2013-08-27 09:04:00,
2013-08-27 04:09:00,74.8,43.0,29.94,North,0,0.0,0.0,32,0.00,CLR,OVC,0.00,WeatherDisplay:10.37,2013-08-27 09:09:00,
2013-08-27 04:14:00,74.8,43.0,29.97,North,0,0.0,0.0,32,0.00,CLR,OVC,0.00,WeatherDisplay:10.37,2013-08-27 09:14:00,
2013-08-27 04:19:00,74.8,43.0,29.97,North,0,0.0,0.0,32,0.00,CLR,OVC,0.00,WeatherDisplay:10.37,2013-08-27 09:19:00,
2013-08-27 04:24:00,74.8,43.8,29.97,North,0,0.0,0.0,33,0.00,CLR,OVC,0.00,WeatherDisplay:10.37,2013-08-27 09:24:00,
2013-08-27 04:29:00,74.8,43.8,29.97,North,0,0.0,0.0,33,0.00,CLR,OVC,0.00,WeatherDisplay:10.37,2013-08-27 09:29:00,
2013-08-27 04:34:00,74.7,43.6,29.97,North,0,0.0,0.0,33,0.00,CLR,OVC,0.00,WeatherDisplay:10.37,2013-08-27 09:34:00,
2013-08-27 04:39:00,74.7,43.6,29.97,North,0,0.0,0.0,33,0.00,CLR,OVC,0.00,WeatherDisplay:10.37,2013-08-27 09:39:00,
2013-08-27 04:44:00,74.7,43.6,29.97,North,0,0.0,0.0,33,0.00,CLR,OVC,0.00,WeatherDisplay:10.37,2013-08-27 09:44:00,
2013-08-27 04:49:00,74.7,43.6,29.97,North,0,0.0,0.0,33,0.00,CLR,OVC,0.00,WeatherDisplay:10.37,2013-08-27 09:49:00,
2013-08-27 04:54:00,74.7,43.6,29.97,North,0,0.0,0.0,33,0.00,CLR,OVC,0.00,WeatherDisplay:10.37,2013-08-27 09:54:00,
2013-08-27 04:59:00,74.7,43.6,29.97,North,0,0.0,0.0,33,0.00,CLR,OVC,0.00,WeatherDisplay:10.37,2013-08-27 09:59:00,
2013-08-27 05:04:00,74.7,43.6,29.97,North,0,0.0,0.0,33,0.00,CLR,OVC,0.00,WeatherDisplay:10.37,2013-08-27 10:04:00,
2013-08-27 05:09:00,74.5,44.3,29.97,North,0,0.0,0.0,34,0.00,CLR,OVC,0.00,WeatherDisplay:10.37,2013-08-27 10:09:00,
2013-08-27 05:14:00,74.5,44.3,29.97,North,0,0.0,0.0,34,0.00,CLR,OVC,0.00,WeatherDisplay:10.37,2013-08-27 10:14:00,
2013-08-27 05:19:00,74.3,44.1,29.97,North,0,0.0,0.0,34,0.00,CLR,OVC,0.00,WeatherDisplay:10.37,2013-08-27 10:19:00,
2013-08-27 05:24:00,74.3,44.1,29.97,North,0,0.0,0.0,34,0.00,CLR,OVC,0.00,WeatherDisplay:10.37,2013-08-27 10:24:00,
2013-08-27 05:29:00,74.1,43.9,29.97,North,0,0.0,0.0,34,0.00,CLR,OVC,0.00,WeatherDisplay:10.37,2013-08-27 10:29:00,
2013-08-27 05:34:00,74.1,43.9,29.97,North,0,0.0,0.0,34,0.00,CLR,OVC,0.00,WeatherDisplay:10.37,2013-08-27 10:34:00,
2013-08-27 05:39:00,73.9,44.5,29.97,North,0,0.0,0.0,35,0.00,CLR,OVC,0.00,WeatherDisplay:10.37,2013-08-27 10:39:00,
2013-08-27 05:44:00,73.9,44.5,29.94,North,0,0.0,0.0,35,0.00,CLR,OVC,0.00,WeatherDisplay:10.37,2013-08-27 10:44:00,
2013-08-27 05:49:00,73.9,44.5,29.94,North,0,0.0,0.0,35,0.00,CLR,OVC,0.00,WeatherDisplay:10.37,2013-08-27 10:49:00,
2013-08-27 05:54:00,73.9,44.5,29.94,North,0,0.0,0.0,35,0.00,CLR,OVC,0.00,WeatherDisplay:10.37,2013-08-27 10:54:00,
2013-08-27 05:59:00,73.8,44.4,29.97,North,0,0.0,0.0,35,0.00,CLR,OVC,0.00,WeatherDisplay:10.37,2013-08-27 10:59:00,
2013-08-27 06:04:00,73.8,45.1,29.97,North,0,0.0,0.0,36,0.00,CLR,OVC,0.00,WeatherDisplay:10.37,2013-08-27 11:04:00,
2013-08-27 06:09:00,73.6,45.0,29.97,North,0,0.0,0.0,36,0.00,CLR,OVC,0.00,WeatherDisplay:10.37,2013-08-27 11:09:00,
2013-08-27 06:14:00,73.4,44.8,29.97,North,0,0.0,0.0,36,0.00,CLR,OVC,0.00,WeatherDisplay:10.37,2013-08-27 11:14:00,
2013-08-27 06:19:00,73.4,44.8,29.97,North,0,0.0,0.0,36,0.00,CLR,OVC,0.00,WeatherDisplay:10.37,2013-08-27 11:19:00,
2013-08-27 06:24:00,73.2,45.4,29.97,North,0,0.0,0.0,37,0.00,CLR,OVC,0.00,WeatherDisplay:10.37,2013-08-27 11:24:00,
2013-08-27 06:29:00,73.2,46.1,29.97,North,0,0.0,0.0,38,0.00,CLR,OVC,0.00,WeatherDisplay:10.37,2013-08-27 11:29:00,
2013-08-27 06:34:00,73.0,45.9,29.97,North,0,0.0,0.0,38,0.00,CLR,OVC,0.00,WeatherDisplay:10.37,2013-08-27 11:34:00,
2013-08-27 06:39:00,73.0,45.9,29.97,North,0,0.0,0.0,38,0.00,CLR,OVC,0.00,WeatherDisplay:10.37,2013-08-27 11:39:00,
2013-08-27 06:44:00,73.0,46.6,29.97,North,0,0.0,0.0,39,0.00,CLR,OVC,0.00,WeatherDisplay:10.37,2013-08-27 11:44:00,
2013-08-27 06:49:00,73.0,46.6,29.97,North,0,0.0,0.0,39,0.00,CLR,OVC,0.00,WeatherDisplay:10.37,2013-08-27 11:49:00,
2013-08-27 06:54:00,73.0,47.3,29.97,North,0,0.0,0.0,40,0.00,CLR,OVC,0.00,WeatherDisplay:10.37,2013-08-27 11:54:00,
2013-08-27 06:59:00,73.2,47.4,30.00,North,0,0.0,0.0,40,0.00,CLR,OVC,0.00,WeatherDisplay:10.37,2013-08-27 11:59:00,
2013-08-27 07:04:00,73.2,48.1,30.00,North,0,0.0,0.0,41,0.00,CLR,OVC,0.00,WeatherDisplay:10.37,2013-08-27 12:04:00,
2013-08-27 07:09:00,73.2,48.1,30.00,North,0,0.0,0.0,41,0.00,CLR,OVC,0.00,WeatherDisplay:10.37,2013-08-27 12:09:00,
2013-08-27 07:14:00,73.4,48.3,30.00,North,0,0.0,0.0,41,0.00,CLR,OVC,0.00,WeatherDisplay:10.37,2013-08-27 12:14:00,
2013-08-27 07:19:00,73.6,48.4,30.00,North,0,0.0,0.0,41,0.00,CLR,OVC,0.00,WeatherDisplay:10.37,2013-08-27 12:19:00,
2013-08-27 07:24:00,73.8,49.2,30.00,North,0,0.0,0.0,42,0.00,CLR,OVC,0.00,WeatherDisplay:10.37,2013-08-27 12:24:00,
2013-08-27 07:29:00,73.9,49.4,30.00,North,0,0.0,0.0,42,0.00,CLR,OVC,0.00,WeatherDisplay:10.37,2013-08-27 12:29:00,
2013-08-27 07:34:00,74.3,49.7,30.00,North,0,0.0,0.0,42,0.00,CLR,OVC,0.00,WeatherDisplay:10.37,2013-08-27 12:34:00,
2013-08-27 07:39:00,74.5,49.9,30.00,North,0,0.0,0.0,42,0.00,CLR,OVC,0.00,WeatherDisplay:10.37,2013-08-27 12:39:00,
2013-08-27 07:44:00,74.7,50.0,30.00,North,0,0.0,0.0,42,0.00,CLR,OVC,0.00,WeatherDisplay:10.37,2013-08-27 12:44:00,
2013-08-27 07:49:00,75.0,50.4,30.00,North,0,0.0,0.0,42,0.00,CLR,OVC,0.00,WeatherDisplay:10.37,2013-08-27 12:49:00,
2013-08-27 07:54:00,75.4,50.0,30.00,North,0,0.0,0.0,41,0.00,CLR,OVC,0.00,WeatherDisplay:10.37,2013-08-27 12:54:00,
2013-08-27 07:59:00,75.7,50.4,30.00,North,0,0.0,0.0,41,0.00,CLR,OVC,0.00,WeatherDisplay:10.37,2013-08-27 12:59:00,
2013-08-27 08:04:00,76.1,50.0,30.00,North,0,0.0,0.0,40,0.00,CLR,OVC,0.00,WeatherDisplay:10.37,2013-08-27 13:04:00,
2013-08-27 08:09:00,76.5,49.7,30.00,North,0,0.0,0.0,39,0.00,CLR,OVC,0.00,WeatherDisplay:10.37,2013-08-27 13:09:00,
2013-08-27 08:14:00,76.8,49.3,30.00,North,0,0.0,0.0,38,0.00,CLR,OVC,0.00,WeatherDisplay:10.37,2013-08-27 13:14:00,
2013-08-27 08:19:00,77.2,48.9,30.00,North,0,0.0,0.0,37,0.00,CLR,OVC,0.00,WeatherDisplay:10.37,2013-08-27 13:19:00,
2013-08-27 08:24:00,77.4,48.3,30.00,North,0,0.0,0.0,36,0.00,CLR,OVC,0.00,WeatherDisplay:10.37,2013-08-27 13:24:00,
2013-08-27 08:29:00,77.5,47.7,30.00,North,0,0.0,0.0,35,0.00,CLR,OVC,0.00,WeatherDisplay:10.37,2013-08-27 13:29:00,
2013-08-27 08:34:00,77.7,47.1,30.00,North,0,0.0,0.0,34,0.00,CLR,OVC,0.00,WeatherDisplay:10.37,2013-08-27 13:34:00,
2013-08-27 08:39:00,77.9,47.3,30.00,North,0,0.0,0.0,34,0.00,CLR,OVC,0.00,WeatherDisplay:10.37,2013-08-27 13:39:00,
2013-08-27 08:44:00,78.1,46.6,30.00,North,0,0.0,0.0,33,0.00,CLR,OVC,0.00,WeatherDisplay:10.37,2013-08-27 13:44:00,
2013-08-27 08:49:00,78.4,46.9,30.00,North,0,0.0,0.0,33,0.00,CLR,OVC,0.00,WeatherDisplay:10.37,2013-08-27 13:49:00,
2013-08-27 08:54:00,78.6,46.3,30.00,North,0,0.0,0.0,32,0.00,CLR,OVC,0.00,WeatherDisplay:10.37,2013-08-27 13:54:00,
2013-08-27 08:59:00,79.0,45.8,29.97,North,0,0.0,0.0,31,0.00,CLR,OVC,0.00,WeatherDisplay:10.37,2013-08-27 13:59:00,
2013-08-27 09:04:00,79.2,45.9,29.97,North,0,0.0,0.0,31,0.00,CLR,OVC,0.00,WeatherDisplay:10.37,2013-08-27 14:04:00,
2013-08-27 09:09:00,79.5,45.4,29.97,North,0,0.0,0.0,30,0.00,CLR,OVC,0.00,WeatherDisplay:10.37,2013-08-27 14:09:00,
2013-08-27 09:14:00,80.1,45.8,29.97,North,0,0.0,0.0,30,0.00,CLR,OVC,0.00,WeatherDisplay:10.37,2013-08-27 14:14:00,
2013-08-27 09:19:00,80.6,45.4,29.97,North,0,0.0,0.0,29,0.00,CLR,OVC,0.00,WeatherDisplay:10.37,2013-08-27 14:19:00,
2013-08-27 09:24:00,81.0,43.8,29.97,North,0,0.0,0.0,27,0.00,CLR,OVC,0.00,WeatherDisplay:10.37,2013-08-27 14:24:00,
2013-08-27 09:29:00,81.5,41.2,29.97,North,0,0.0,0.0,24,0.00,CLR,OVC,0.00,WeatherDisplay:10.37,2013-08-27 14:29:00,
2013-08-27 09:34:00,82.2,40.7,29.97,North,0,0.0,0.0,23,0.00,CLR,OVC,0.00,WeatherDisplay:10.37,2013-08-27 14:34:00,
2013-08-27 09:39:00,82.6,38.7,29.97,North,0,0.0,0.0,21,0.00,CLR,OVC,0.00,WeatherDisplay:10.37,2013-08-27 14:39:00,
2013-08-27 09:44:00,82.9,39.0,29.97,North,0,0.0,0.0,21,0.00,CLR,OVC,0.00,WeatherDisplay:10.37,2013-08-27 14:44:00,
2013-08-27 09:50:00,83.3,38.0,29.97,North,0,0.0,0.0,20,0.00,CLR,OVC,0.00,WeatherDisplay:10.37,2013-08-27 14:50:00,
2013-08-27 09:55:00,83.5,38.2,29.97,North,0,0.0,0.0,20,0.00,CLR,OVC,0.00,WeatherDisplay:10.37,2013-08-27 14:55:00,
2013-08-27 10:00:00,83.7,38.3,29.97,North,0,0.0,0.0,20,0.00,CLR,OVC,0.00,WeatherDisplay:10.37,2013-08-27 15:00:00,
2013-08-27 10:05:00,84.0,37.3,29.97,North,0,0.0,0.0,19,0.00,CLR,OVC,0.00,WeatherDisplay:10.37,2013-08-27 15:05:00,
2013-08-27 10:10:00,84.2,37.5,29.97,North,0,0.0,0.0,19,0.00,CLR,OVC,0.00,WeatherDisplay:10.37,2013-08-27 15:10:00,
2013-08-27 10:15:00,84.4,37.6,29.97,North,0,0.0,0.0,19,0.00,CLR,OVC,0.00,WeatherDisplay:10.37,2013-08-27 15:15:00,
2013-08-27 10:20:00,84.7,36.5,29.97,North,0,0.0,0.0,18,0.00,CLR,OVC,0.00,WeatherDisplay:10.37,2013-08-27 15:20:00,
2013-08-27 10:25:00,85.1,36.8,29.97,North,0,0.0,0.0,18,0.00,CLR,OVC,0.00,WeatherDisplay:10.37,2013-08-27 15:25:00,
2013-08-27 10:30:00,85.5,34.1,29.97,North,0,0.0,0.0,16,0.00,CLR,OVC,0.00,WeatherDisplay:10.37,2013-08-27 15:30:00,
2013-08-27 10:35:00,85.6,34.3,29.97,North,0,0.0,0.0,16,0.00,CLR,OVC,0.00,WeatherDisplay:10.37,2013-08-27 15:35:00,
2013-08-27 10:40:00,86.0,34.6,29.97,North,0,0.0,0.0,16,0.00,CLR,OVC,0.00,WeatherDisplay:10.37,2013-08-27 15:40:00,
2013-08-27 10:45:00,86.4,29.7,29.97,North,0,0.0,0.0,13,0.00,CLR,OVC,0.00,WeatherDisplay:10.37,2013-08-27 15:45:00,
2013-08-27 10:50:00,86.7,30.0,29.97,North,0,0.0,0.0,13,0.00,CLR,OVC,0.00,WeatherDisplay:10.37,2013-08-27 15:50:00,
2013-08-27 10:55:00,87.1,30.3,29.97,North,0,0.0,0.0,13,0.00,CLR,OVC,0.00,WeatherDisplay:10.37,2013-08-27 15:55:00,
2013-08-27 11:00:00,87.3,26.3,29.97,North,0,0.0,0.0,11,0.00,CLR,OVC,0.00,WeatherDisplay:10.37,2013-08-27 16:00:00,
2013-08-27 11:05:00,87.4,26.5,29.97,North,0,0.0,0.0,11,0.00,CLR,OVC,0.00,WeatherDisplay:10.37,2013-08-27 16:05:00,
2013-08-27 11:10:00,87.8,24.4,29.97,North,0,0.0,0.0,10,0.00,CLR,OVC,0.00,WeatherDisplay:10.37,2013-08-27 16:10:00,
2013-08-27 11:15:00,88.2,24.7,29.97,North,0,0.0,0.0,10,0.00,CLR,OVC,0.00,WeatherDisplay:10.37,2013-08-27 16:15:00,
2013-08-27 11:20:00,88.5,25.0,29.97,North,0,0.0,0.0,10,0.00,CLR,OVC,0.00,WeatherDisplay:10.37,2013-08-27 16:20:00,
2013-08-27 11:25:00,88.7,19.8,29.97,North,0,0.0,0.0,8,0.00,CLR,OVC,0.00,WeatherDisplay:10.37,2013-08-27 16:25:00,
2013-08-27 11:30:00,89.4,20.3,29.97,North,0,0.0,0.0,8,0.00,CLR,OVC,0.00,WeatherDisplay:10.37,2013-08-27 16:30:00,
2013-08-27 11:35:00,89.8,17.5,29.97,North,0,0.0,0.0,7,0.00,CLR,OVC,0.00,WeatherDisplay:10.37,2013-08-27 16:35:00,
2013-08-27 11:40:00,90.1,17.8,29.97,North,0,0.0,0.0,7,0.00,CLR,OVC,0.00,WeatherDisplay:10.37,2013-08-27 16:40:00,
2013-08-27 11:45:00,90.5,18.0,29.97,North,0,0.0,0.0,7,0.00,CLR,OVC,0.00,WeatherDisplay:10.37,2013-08-27 16:45:00,
2013-08-27 11:50:00,90.9,18.3,29.97,North,0,0.0,0.0,7,0.00,CLR,OVC,0.00,WeatherDisplay:10.37,2013-08-27 16:50:00,
2013-08-27 11:55:00,91.2,18.5,29.97,North,0,0.0,0.0,7,0.00,CLR,OVC,0.00,WeatherDisplay:10.37,2013-08-27 16:55:00,
2013-08-27 12:00:00,91.6,18.8,29.97,North,0,0.0,0.0,7,0.00,CLR,OVC,0.00,WeatherDisplay:10.37,2013-08-27 17:00:00,
2013-08-27 12:05:00,91.6,18.8,29.97,North,0,0.0,0.0,7,0.00,CLR,OVC,0.00,WeatherDisplay:10.37,2013-08-27 17:05:00,
2013-08-27 12:10:00,91.9,19.1,29.97,North,0,0.0,0.0,7,0.00,CLR,OVC,0.00,WeatherDisplay:10.37,2013-08-27 17:10:00,
2013-08-27 12:15:00,92.5,19.5,29.94,North,0,0.0,0.0,7,0.00,CLR,OVC,0.00,WeatherDisplay:10.37,2013-08-27 17:15:00,
2013-08-27 12:20:00,92.5,19.5,29.94,North,0,0.0,0.0,7,0.00,CLR,OVC,0.00,WeatherDisplay:10.37,2013-08-27 17:20:00,
2013-08-27 12:25:00,92.5,19.5,29.94,North,0,0.0,0.0,7,0.00,CLR,OVC,0.00,WeatherDisplay:10.37,2013-08-27 17:25:00,
2013-08-27 12:30:00,92.7,19.6,29.94,North,0,0.0,0.0,7,0.00,CLR,OVC,0.00,WeatherDisplay:10.37,2013-08-27 17:30:00,
2013-08-27 12:35:00,93.2,16.4,29.94,North,0,0.0,0.0,6,0.00,CLR,OVC,0.00,WeatherDisplay:10.37,2013-08-27 17:35:00,
2013-08-27 12:40:00,93.7,16.8,29.94,North,0,0.0,0.0,6,0.00,CLR,OVC,0.00,WeatherDisplay:10.37,2013-08-27 17:40:00,
2013-08-27 12:45:00,93.7,16.8,29.94,North,0,0.0,0.0,6,0.00,CLR,OVC,0.00,WeatherDisplay:10.37,2013-08-27 17:45:00,
2013-08-27 12:50:00,94.3,17.2,29.94,North,0,0.0,0.0,6,0.00,CLR,OVC,0.00,WeatherDisplay:10.37,2013-08-27 17:50:00,
2013-08-27 12:55:00,94.1,17.0,29.94,North,0,0.0,0.0,6,0.00,CLR,OVC,0.00,WeatherDisplay:10.37,2013-08-27 17:55:00,
2013-08-27 13:00:00,93.9,16.9,29.94,North,0,0.0,0.0,6,0.00,CLR,OVC,0.00,WeatherDisplay:10.37,2013-08-27 18:00:00,
2013-08-27 13:05:00,94.5,17.3,29.94,North,0,0.0,0.0,6,0.00,CLR,OVC,0.00,WeatherDisplay:10.37,2013-08-27 18:05:00,
2013-08-27 13:10:00,94.6,17.4,29.94,North,0,0.0,0.0,6,0.00,CLR,OVC,0.00,WeatherDisplay:10.37,2013-08-27 18:10:00,
2013-08-27 13:15:00,94.6,17.4,29.94,North,0,0.0,0.0,6,0.00,CLR,OVC,0.00,WeatherDisplay:10.37,2013-08-27 18:15:00,
2013-08-27 13:20:00,94.8,17.6,29.94,North,0,0.0,0.0,6,0.00,CLR,OVC,0.00,WeatherDisplay:10.37,2013-08-27 18:20:00,
2013-08-27 13:25:00,94.8,17.6,29.94,North,0,0.0,0.0,6,0.00,CLR,OVC,0.00,WeatherDisplay:10.37,2013-08-27 18:25:00,
2013-08-27 13:30:00,95.0,17.7,29.91,North,0,0.0,0.0,6,0.00,CLR,OVC,0.00,WeatherDisplay:10.37,2013-08-27 18:30:00,
2013-08-27 13:35:00,95.4,17.9,29.91,North,0,0.0,0.0,6,0.00,CLR,OVC,0.00,WeatherDisplay:10.37,2013-08-27 18:35:00,
2013-08-27 13:40:00,95.5,18.1,29.91,North,0,0.0,0.0,6,0.00,CLR,OVC,0.00,WeatherDisplay:10.37,2013-08-27 18:40:00,
2013-08-27 13:45:00,95.9,18.3,29.91,North,0,0.0,0.0,6,0.00,CLR,OVC,0.00,WeatherDisplay:10.37,2013-08-27 18:45:00,
2013-08-27 13:50:00,96.1,18.5,29.91,North,0,0.0,0.0,6,0.00,CLR,OVC,0.00,WeatherDisplay:10.37,2013-08-27 18:50:00,
2013-08-27 13:55:00,96.1,18.5,29.91,North,0,0.0,0.0,6,0.00,CLR,OVC,0.00,WeatherDisplay:10.37,2013-08-27 18:55:00,
2013-08-27 14:00:00,96.3,18.6,29.91,North,0,0.0,0.0,6,0.00,CLR,OVC,0.00,WeatherDisplay:10.37,2013-08-27 19:00:00,
2013-08-27 14:05:00,96.4,18.7,29.91,North,0,0.0,0.0,6,0.00,CLR,OVC,0.00,WeatherDisplay:10.37,2013-08-27 19:05:00,
2013-08-27 14:10:00,96.4,18.7,29.91,North,0,0.0,0.0,6,0.00,CLR,OVC,0.00,WeatherDisplay:10.37,2013-08-27 19:10:00,
2013-08-27 14:15:00,97.0,19.1,29.91,North,0,0.0,0.0,6,0.00,CLR,OVC,0.00,WeatherDisplay:10.37,2013-08-27 19:15:00,
2013-08-27 14:20:00,96.6,18.8,29.91,North,0,0.0,0.0,6,0.00,CLR,OVC,0.00,WeatherDisplay:10.37,2013-08-27 19:20:00,
2013-08-27 14:25:00,96.6,18.8,29.91,North,0,0.0,0.0,6,0.00,CLR,OVC,0.00,WeatherDisplay:10.37,2013-08-27 19:25:00,
2013-08-27 14:30:00,96.6,18.8,29.91,North,0,0.0,0.0,6,0.00,CLR,OVC,0.00,WeatherDisplay:10.37,2013-08-27 19:30:00,
2013-08-27 14:35:00,96.6,18.8,29.91,North,0,0.0,0.0,6,0.00,CLR,OVC,0.00,WeatherDisplay:10.37,2013-08-27 19:35:00,
2013-08-27 14:40:00,96.6,18.8,29.91,North,0,0.0,0.0,6,0.00,CLR,OVC,0.00,WeatherDisplay:10.37,2013-08-27 19:40:00,
2013-08-27 14:45:00,96.8,19.0,29.91,North,0,0.0,0.0,6,0.00,CLR,OVC,0.00,WeatherDisplay:10.37,2013-08-27 19:45:00,
2013-08-27 14:50:00,97.2,19.2,29.91,North,0,0.0,0.0,6,0.00,CLR,OVC,0.00,WeatherDisplay:10.37,2013-08-27 19:50:00,
2013-08-27 14:55:00,97.5,19.5,29.91,North,0,0.0,0.0,6,0.00,CLR,OVC,0.00,WeatherDisplay:10.37,2013-08-27 19:55:00,
2013-08-27 15:00:00,97.2,19.2,29.91,North,0,0.0,0.0,6,0.00,CLR,OVC,0.00,WeatherDisplay:10.37,2013-08-27 20:00:00,
2013-08-27 15:05:00,97.3,19.4,29.91,North,0,0.0,0.0,6,0.00,CLR,OVC,0.00,WeatherDisplay:10.37,2013-08-27 20:05:00,
2013-08-27 15:10:00,97.5,19.5,29.91,North,0,0.0,0.0,6,0.00,CLR,OVC,0.00,WeatherDisplay:10.37,2013-08-27 20:10:00,
2013-08-27 15:15:00,97.5,19.5,29.91,North,0,0.0,0.0,6,0.00,CLR,OVC,0.00,WeatherDisplay:10.37,2013-08-27 20:15:00,
2013-08-27 15:20:00,97.2,19.2,29.91,North,0,0.0,0.0,6,0.00,CLR,OVC,0.00,WeatherDisplay:10.37,2013-08-27 20:20:00,
2013-08-27 15:25:00,97.5,19.5,29.91,North,0,0.0,0.0,6,0.00,CLR,OVC,0.00,WeatherDisplay:10.37,2013-08-27 20:25:00,
2013-08-27 15:30:00,97.7,19.6,29.91,North,0,0.0,0.0,6,0.00,CLR,OVC,0.00,WeatherDisplay:10.37,2013-08-27 20:30:00,
2013-08-27 15:35:00,97.9,19.7,29.91,North,0,0.0,0.0,6,0.00,CLR,OVC,0.00,WeatherDisplay:10.37,2013-08-27 20:35:00,
2013-08-27 15:40:00,97.7,19.6,29.91,North,0,0.0,0.0,6,0.00,CLR,OVC,0.00,WeatherDisplay:10.37,2013-08-27 20:40:00,
2013-08-27 15:45:00,97.5,19.5,29.88,North,0,0.0,0.0,6,0.00,CLR,OVC,0.00,WeatherDisplay:10.37,2013-08-27 20:45:00,
2013-08-27 15:50:00,97.3,19.4,29.88,North,0,0.0,0.0,6,0.00,CLR,OVC,0.00,WeatherDisplay:10.37,2013-08-27 20:50:00,
2013-08-27 15:55:00,97.2,19.2,29.88,North,0,0.0,0.0,6,0.00,CLR,OVC,0.00,WeatherDisplay:10.37,2013-08-27 20:55:00,
2013-08-27 16:00:00,96.8,19.0,29.88,North,0,0.0,0.0,6,0.00,CLR,OVC,0.00,WeatherDisplay:10.37,2013-08-27 21:00:00,
2013-08-27 16:05:00,96.4,18.7,29.88,North,0,0.0,0.0,6,0.00,CLR,OVC,0.00,WeatherDisplay:10.37,2013-08-27 21:05:00,
2013-08-27 16:10:00,96.1,18.5,29.88,North,0,0.0,0.0,6,0.00,CLR,OVC,0.00,WeatherDisplay:10.37,2013-08-27 21:10:00,
2013-08-27 16:30:00,93.4,16.5,29.88,North,0,0.0,0.0,6,0.00,CLR,OVC,0.00,WeatherDisplay:10.37,2013-08-27 21:30:00,
2013-08-27 16:35:00,93.0,19.9,29.88,North,0,0.0,0.0,7,0.00,CLR,OVC,0.00,WeatherDisplay:10.37,2013-08-27 21:35:00,
2013-08-27 16:41:00,92.5,19.5,29.88,North,0,0.0,0.0,7,0.00,CLR,OVC,0.00,WeatherDisplay:10.37,2013-08-27 21:41:00,
2013-08-27 16:47:00,92.3,19.3,29.88,North,0,0.0,0.0,7,0.00,CLR,OVC,0.00,WeatherDisplay:10.37,2013-08-27 21:47:00,
2013-08-27 16:52:00,92.1,19.2,29.88,North,0,0.0,0.0,7,0.00,CLR,OVC,0.00,WeatherDisplay:10.37,2013-08-27 21:52:00,
2013-08-27 16:57:00,92.1,19.2,29.88,North,0,0.0,0.0,7,0.00,CLR,OVC,0.00,WeatherDisplay:10.37,2013-08-27 21:57:00,
2013-08-27 17:02:00,91.8,18.9,29.88,North,0,0.0,0.0,7,0.00,CLR,OVC,0.00,WeatherDisplay:10.37,2013-08-27 22:02:00,
2013-08-27 17:07:00,91.8,18.9,29.88,North,0,0.0,0.0,7,0.00,CLR,OVC,0.00,WeatherDisplay:10.37,2013-08-27 22:07:00,
2013-08-27 17:12:00,91.8,18.9,29.88,North,0,0.0,0.0,7,0.00,CLR,OVC,0.00,WeatherDisplay:10.37,2013-08-27 22:12:00,
2013-08-27 17:17:00,91.6,18.8,29.88,North,0,0.0,0.0,7,0.00,CLR,OVC,0.00,WeatherDisplay:10.37,2013-08-27 22:17:00,
2013-08-27 17:22:00,91.6,18.8,29.88,North,0,0.0,0.0,7,0.00,CLR,OVC,0.00,WeatherDisplay:10.37,2013-08-27 22:22:00,
2013-08-27 17:27:00,91.6,18.8,29.88,North,0,0.0,0.0,7,0.00,CLR,OVC,0.00,WeatherDisplay:10.37,2013-08-27 22:27:00,
2013-08-27 17:32:00,91.6,18.8,29.88,North,0,0.0,0.0,7,0.00,CLR,OVC,0.00,WeatherDisplay:10.37,2013-08-27 22:32:00,
2013-08-27 17:37:00,91.6,18.8,29.88,North,0,0.0,0.0,7,0.00,CLR,OVC,0.00,WeatherDisplay:10.37,2013-08-27 22:37:00,
2013-08-27 17:42:00,91.2,18.5,29.88,North,0,0.0,0.0,7,0.00,CLR,OVC,0.00,WeatherDisplay:10.37,2013-08-27 22:42:00,
2013-08-27 17:47:00,91.2,18.5,29.88,North,0,0.0,0.0,7,0.00,CLR,OVC,0.00,WeatherDisplay:10.37,2013-08-27 22:47:00,
2013-08-27 17:52:00,91.2,18.5,29.88,North,0,0.0,0.0,7,0.00,CLR,OVC,0.00,WeatherDisplay:10.37,2013-08-27 22:52:00,
2013-08-27 17:57:00,90.9,18.3,29.88,North,0,0.0,0.0,7,0.00,CLR,OVC,0.00,WeatherDisplay:10.37,2013-08-27 22:57:00,
2013-08-27 18:02:00,90.7,18.1,29.88,North,0,0.0,0.0,7,0.00,CLR,OVC,0.00,WeatherDisplay:10.37,2013-08-27 23:02:00,
2013-08-27 18:07:00,90.7,18.1,29.88,North,0,0.0,0.0,7,0.00,CLR,OVC,0.00,WeatherDisplay:10.37,2013-08-27 23:07:00,
2013-08-27 18:12:00,90.5,18.0,29.88,North,0,0.0,0.0,7,0.00,CLR,OVC,0.00,WeatherDisplay:10.37,2013-08-27 23:12:00,
2013-08-27 18:17:00,90.3,17.9,29.88,North,0,0.0,0.0,7,0.00,CLR,OVC,0.00,WeatherDisplay:10.37,2013-08-27 23:17:00,
2013-08-27 18:22:00,90.1,17.8,29.88,North,0,0.0,0.0,7,0.00,CLR,OVC,0.00,WeatherDisplay:10.37,2013-08-27 23:22:00,
2013-08-27 18:27:00,90.0,17.6,29.88,North,0,0.0,0.0,7,0.00,CLR,OVC,0.00,WeatherDisplay:10.37,2013-08-27 23:27:00,
2013-08-27 18:32:00,89.6,17.4,29.88,North,0,0.0,0.0,7,0.00,CLR,OVC,0.00,WeatherDisplay:10.37,2013-08-27 23:32:00,
2013-08-27 18:37:00,89.8,17.5,29.88,North,0,0.0,0.0,7,0.00,CLR,OVC,0.00,WeatherDisplay:10.37,2013-08-27 23:37:00,
2013-08-27 18:42:00,89.6,17.4,29.88,North,0,0.0,0.0,7,0.00,CLR,OVC,0.00,WeatherDisplay:10.37,2013-08-27 23:42:00,
2013-08-27 18:47:00,89.6,17.4,29.85,North,0,0.0,0.0,7,0.00,CLR,OVC,0.00,WeatherDisplay:10.37,2013-08-27 23:47:00,
2013-08-27 18:52:00,89.2,20.2,29.85,North,0,0.0,0.0,8,0.00,CLR,OVC,0.00,WeatherDisplay:10.37,2013-08-27 23:52:00,
2013-08-27 18:57:00,89.1,20.1,29.85,North,0,0.0,0.0,8,0.00,CLR,OVC,0.00,WeatherDisplay:10.37,2013-08-27 23:57:00,
2013-08-27 19:02:00,88.7,19.8,29.88,North,0,0.0,0.0,8,0.00,CLR,OVC,0.00,WeatherDisplay:10.37,2013-08-28 00:02:00,
2013-08-27 19:07:00,88.5,19.7,29.88,North,0,0.0,0.0,8,0.00,CLR,OVC,0.00,WeatherDisplay:10.37,2013-08-28 00:07:00,
2013-08-27 19:12:00,88.2,19.4,29.88,North,0,0.0,0.0,8,0.00,CLR,OVC,0.00,WeatherDisplay:10.37,2013-08-28 00:12:00,
2013-08-27 19:17:00,87.8,19.1,29.88,North,0,0.0,0.0,8,0.00,CLR,OVC,0.00,WeatherDisplay:10.37,2013-08-28 00:17:00,
2013-08-27 19:22:00,87.6,19.0,29.88,North,0,0.0,0.0,8,0.00,CLR,OVC,0.00,WeatherDisplay:10.37,2013-08-28 00:22:00,
2013-08-27 19:27:00,87.4,18.9,29.88,North,0,0.0,0.0,8,0.00,CLR,OVC,0.00,WeatherDisplay:10.37,2013-08-28 00:27:00,
2013-08-27 19:32:00,87.1,18.6,29.88,North,0,0.0,0.0,8,0.00,CLR,OVC,0.00,WeatherDisplay:10.37,2013-08-28 00:32:00,
2013-08-27 19:37:00,87.1,18.6,29.88,North,0,0.0,0.0,8,0.00,CLR,OVC,0.00,WeatherDisplay:10.37,2013-08-28 00:37:00,
2013-08-27 19:42:00,86.7,18.3,29.88,North,0,0.0,0.0,8,0.00,CLR,OVC,0.00,WeatherDisplay:10.37,2013-08-28 00:42:00,
2013-08-27 19:47:00,86.4,18.1,29.88,North,0,0.0,0.0,8,0.00,CLR,OVC,0.00,WeatherDisplay:10.37,2013-08-28 00:47:00,
2013-08-27 19:52:00,86.0,17.8,29.88,North,0,0.0,0.0,8,0.00,CLR,OVC,0.00,WeatherDisplay:10.37,2013-08-28 00:52:00,
2013-08-27 19:57:00,85.8,17.7,29.88,North,0,0.0,0.0,8,0.00,CLR,OVC,0.00,WeatherDisplay:10.37,2013-08-28 00:57:00,
2013-08-27 20:02:00,85.6,17.5,29.88,North,0,0.0,0.0,8,0.00,CLR,OVC,0.00,WeatherDisplay:10.37,2013-08-28 01:02:00,
2013-08-27 20:07:00,85.3,17.3,29.88,North,0,0.0,0.0,8,0.00,CLR,OVC,0.00,WeatherDisplay:10.37,2013-08-28 01:07:00,
2013-08-27 20:12:00,85.3,17.3,29.88,North,0,0.0,0.0,8,0.00,CLR,OVC,0.00,WeatherDisplay:10.37,2013-08-28 01:12:00,
2013-08-27 20:17:00,84.9,17.0,29.88,North,0,0.0,0.0,8,0.00,CLR,OVC,0.00,WeatherDisplay:10.37,2013-08-28 01:17:00,
2013-08-27 20:22:00,84.9,17.0,29.88,North,0,0.0,0.0,8,0.00,CLR,OVC,0.00,WeatherDisplay:10.37,2013-08-28 01:22:00,
2013-08-27 20:27:00,84.7,16.9,29.88,North,0,0.0,0.0,8,0.00,CLR,OVC,0.00,WeatherDisplay:10.37,2013-08-28 01:27:00,
2013-08-27 20:32:00,84.7,16.9,29.88,North,0,0.0,0.0,8,0.00,CLR,OVC,0.00,WeatherDisplay:10.37,2013-08-28 01:32:00,
2013-08-27 20:37:00,84.7,16.9,29.88,North,0,0.0,0.0,8,0.00,CLR,OVC,0.00,WeatherDisplay:10.37,2013-08-28 01:37:00,
2013-08-27 20:42:00,84.7,16.9,29.88,North,0,0.0,0.0,8,0.00,CLR,OVC,0.00,WeatherDisplay:10.37,2013-08-28 01:42:00,
2013-08-27 20:47:00,84.7,16.9,29.88,North,0,0.0,0.0,8,0.00,CLR,OVC,0.00,WeatherDisplay:10.37,2013-08-28 01:47:00,
2013-08-27 20:52:00,84.6,16.7,29.88,North,0,0.0,0.0,8,0.00,CLR,OVC,0.00,WeatherDisplay:10.37,2013-08-28 01:52:00,
2013-08-27 20:57:00,84.4,16.6,29.88,North,0,0.0,0.0,8,0.00,CLR,OVC,0.00,WeatherDisplay:10.37,2013-08-28 01:57:00,
2013-08-27 21:02:00,84.2,16.5,29.88,North,0,0.0,0.0,8,0.00,CLR,OVC,0.00,WeatherDisplay:10.37,2013-08-28 02:02:00,
2013-08-27 21:08:00,84.0,19.1,29.88,North,0,0.0,0.0,9,0.00,CLR,OVC,0.00,WeatherDisplay:10.37,2013-08-28 02:08:00,
2013-08-27 21:13:00,84.0,19.1,29.88,North,0,0.0,0.0,9,0.00,CLR,OVC,0.00,WeatherDisplay:10.37,2013-08-28 02:13:00,
2013-08-27 21:18:00,83.8,18.9,29.88,North,0,0.0,0.0,9,0.00,CLR,OVC,0.00,WeatherDisplay:10.37,2013-08-28 02:18:00,
2013-08-27 21:23:00,83.7,18.8,29.88,North,0,0.0,0.0,9,0.00,CLR,OVC,0.00,WeatherDisplay:10.37,2013-08-28 02:23:00,
2013-08-27 21:28:00,83.7,18.8,29.88,North,0,0.0,0.0,9,0.00,CLR,OVC,0.00,WeatherDisplay:10.37,2013-08-28 02:28:00,
2013-08-27 21:33:00,83.5,18.7,29.88,North,0,0.0,0.0,9,0.00,CLR,OVC,0.00,WeatherDisplay:10.37,2013-08-28 02:33:00,
2013-08-27 21:38:00,83.5,18.7,29.88,North,0,0.0,0.0,9,0.00,CLR,OVC,0.00,WeatherDisplay:10.37,2013-08-28 02:38:00,
2013-08-27 21:43:00,83.5,18.7,29.88,North,0,0.0,0.0,9,0.00,CLR,OVC,0.00,WeatherDisplay:10.37,2013-08-28 02:43:00,
2013-08-27 21:48:00,83.3,18.5,29.88,North,0,0.0,0.0,9,0.00,CLR,OVC,0.00,WeatherDisplay:10.37,2013-08-28 02:48:00,
2013-08-27 21:53:00,82.9,18.3,29.88,North,0,0.0,0.0,9,0.00,CLR,OVC,0.00,WeatherDisplay:10.37,2013-08-28 02:53:00,
2013-08-27 21:58:00,82.9,18.3,29.88,North,0,0.0,0.0,9,0.00,CLR,OVC,0.00,WeatherDisplay:10.37,2013-08-28 02:58:00,
2013-08-27 22:03:00,82.6,18.0,29.88,North,0,0.0,0.0,9,0.00,CLR,OVC,0.00,WeatherDisplay:10.37,2013-08-28 03:03:00,
2013-08-27 22:08:00,82.2,17.7,29.88,North,0,0.0,0.0,9,0.00,CLR,OVC,0.00,WeatherDisplay:10.37,2013-08-28 03:08:00,
2013-08-27 22:13:00,82.0,17.6,29.88,North,0,0.0,0.0,9,0.00,CLR,OVC,0.00,WeatherDisplay:10.37,2013-08-28 03:13:00,
2013-08-27 22:18:00,81.9,17.5,29.88,North,0,0.0,0.0,9,0.00,CLR,OVC,0.00,WeatherDisplay:10.37,2013-08-28 03:18:00,
2013-08-27 22:23:00,81.5,17.2,29.88,North,0,0.0,0.0,9,0.00,CLR,OVC,0.00,WeatherDisplay:10.37,2013-08-28 03:23:00,
2013-08-27 22:28:00,81.3,17.0,29.91,North,0,0.0,0.0,9,0.00,CLR,OVC,0.00,WeatherDisplay:10.37,2013-08-28 03:28:00,
2013-08-27 22:33:00,81.3,17.0,29.91,North,0,0.0,0.0,9,0.00,CLR,OVC,0.00,WeatherDisplay:10.37,2013-08-28 03:33:00,
2013-08-27 22:38:00,81.1,16.9,29.91,North,0,0.0,0.0,9,0.00,CLR,OVC,0.00,WeatherDisplay:10.37,2013-08-28 03:38:00,
2013-08-27 22:43:00,81.1,16.9,29.91,North,0,0.0,0.0,9,0.00,CLR,OVC,0.00,WeatherDisplay:10.37,2013-08-28 03:43:00,
2013-08-27 22:48:00,81.1,16.9,29.91,North,0,0.0,0.0,9,0.00,CLR,OVC,0.00,WeatherDisplay:10.37,2013-08-28 03:48:00,
2013-08-27 22:53:00,81.0,16.8,29.91,North,0,0.0,0.0,9,0.00,CLR,OVC,0.00,WeatherDisplay:10.37,2013-08-28 03:53:00,
2013-08-27 22:58:00,81.0,16.8,29.91,North,0,0.0,0.0,9,0.00,CLR,OVC,0.00,WeatherDisplay:10.37,2013-08-28 03:58:00,
2013-08-27 23:01:00,81.0,16.8,29.91,North,0,0.0,0.0,9,0.00,CLR,OVC,0.00,WeatherDisplay:10.37,2013-08-28 04:01:00,
2013-08-27 23:02:00,81.0,16.8,29.91,North,0,0.0,0.0,9,0.00,CLR,OVC,0.00,WeatherDisplay:10.37,2013-08-28 04:02:00,
2013-08-27 23:03:00,80.8,16.6,29.91,North,0,0.0,0.0,9,0.00,CLR,OVC,0.00,WeatherDisplay:10.37,2013-08-28 04:03:00,
2013-08-27 23:07:00,80.8,16.6,29.91,North,0,0.0,0.0,9,0.00,CLR,OVC,0.00,WeatherDisplay:10.37,2013-08-28 04:07:00,
2013-08-27 23:12:00,80.6,16.5,29.91,North,0,0.0,0.0,9,0.00,CLR,OVC,0.00,WeatherDisplay:10.37,2013-08-28 04:12:00,
2013-08-27 23:17:00,80.6,16.5,29.91,North,0,0.0,0.0,9,0.00,CLR,OVC,0.00,WeatherDisplay:10.37,2013-08-28 04:17:00,
2013-08-27 23:22:00,80.4,18.8,29.91,North,0,0.0,0.0,10,0.00,CLR,OVC,0.00,WeatherDisplay:10.37,2013-08-28 04:22:00,
2013-08-27 23:27:00,80.4,18.8,29.91,North,0,0.0,0.0,10,0.00,CLR,OVC,0.00,WeatherDisplay:10.37,2013-08-28 04:27:00,
2013-08-27 23:32:00,80.4,18.8,29.91,North,0,0.0,0.0,10,0.00,CLR,OVC,0.00,WeatherDisplay:10.37,2013-08-28 04:32:00,
2013-08-27 23:37:00,80.4,18.8,29.91,North,0,0.0,0.0,10,0.00,CLR,OVC,0.00,WeatherDisplay:10.37,2013-08-28 04:37:00,
2013-08-27 23:42:00,80.4,18.8,29.91,North,0,0.0,0.0,10,0.00,CLR,OVC,0.00,WeatherDisplay:10.37,2013-08-28 04:42:00,
2013-08-27 23:47:00,80.2,18.7,29.91,North,0,0.0,0.0,10,0.00,CLR,OVC,0.00,WeatherDisplay:10.37,2013-08-28 04:47:00,
2013-08-27 23:52:00,80.2,18.7,29.91,North,0,0.0,0.0,10,0.00,CLR,OVC,0.00,WeatherDisplay:10.37,2013-08-28 04:52:00,
2013-08-27 23:57:00,80.1,18.5,29.91,North,0,0.0,0.0,10,0.00,CLR,OVC,0.00,WeatherDisplay:10.37,2013-08-28 04:57:00,